Weather History for KI39 - July, 2013

Change the Weather History Date:

Thursday, July 25, 2013

  Actual Average (KLOZ) Record (KLOZ)
Temperature  
Mean Temperature 68 °F 76 °F  
Max Temperature 77 °F 86 °F 96 °F (1987)
Min Temperature 59 °F 66 °F 55 °F (1966)
Degree Days  
Heating Degree Days 0 0  
Month to date heating degree days 0  
Since 1 June heating degree days 9  
Since 1 July heating degree days 0  
Cooling Degree Days 3 11  
Month to date cooling degree days 275  
Growing Degree Days 18 (Base 50)    
Moisture  
Dew Point 58 °F    
Average Humidity 71    
Maximum Humidity 94    
Minimum Humidity 50    
Precipitation  
Precipitation 0.00 in 0.13 in 1.84 in (1977)
Month to date precipitation 3.30  
Sea Level Pressure  
Sea Level Pressure 30.04 in    
Wind  
Wind Speed 3 mph (NNE)    
Max Wind Speed 8 mph    
Max Gust Speed -    
Visibility 9 miles    
Events      
T = Trace of Precipitation, MM = Missing Value Source: NWS Daily Summary

Daily Weather History Graph

Daily Weather History Graph

Search for Another Location

Airport or City:

Trip Planner

Search our weather history database for the weather conditions in past years. The results will help you decide how hot, cold, wet, or windy it might be!

Date:

Astronomy

Jul. 25, 2013 Rise Set
Actual Time 6:35 AM EDT 8:51 PM EDT
Civil Twilight 6:06 AM EDT 9:21 PM EDT
Nautical Twilight 5:29 AM EDT 9:57 PM EDT
Astronomical Twilight 4:49 AM EDT 10:36 PM EDT
Moon 10:37 PM EDT (7/25) 9:58 AM EDT (7/25)
Length of Visible Light 15h 15m
Length of Day
14h 16m
Waning Gibbous, 88% of the Moon is Illuminated
Jul 25
Waning Gibbous
Jul 29
Last Quarter
Aug 6
New
Aug 14
First Quarter
Aug 20
Full

Hourly Weather History & Observations

Time (EDT) Temp. Dew Point Humidity Pressure Visibility Wind Dir Wind Speed Gust Speed Precip Events Conditions
12:15 AM 66.2 °F 60.8 °F 83% 29.97 in 10.0 mi North 3.5 mph - N/A   Clear
12:35 AM 66.2 °F 60.8 °F 83% 29.97 in 10.0 mi North 3.5 mph - N/A   Mostly Cloudy
12:55 AM 66.2 °F 60.8 °F 83% 29.97 in 10.0 mi NNE 3.5 mph - N/A   Overcast
1:15 AM 66.2 °F 60.8 °F 83% 29.98 in 10.0 mi NNE 5.8 mph - N/A   Overcast
1:35 AM 66.2 °F 60.8 °F 83% 29.98 in 10.0 mi NNE 4.6 mph - N/A   Mostly Cloudy
1:55 AM 66.2 °F 60.8 °F 83% 29.98 in 10.0 mi NE 4.6 mph - N/A   Scattered Clouds
2:15 AM 64.4 °F 59.0 °F 83% 29.98 in 10.0 mi Calm Calm - N/A   Clear
2:35 AM 64.4 °F 59.0 °F 83% 29.98 in 10.0 mi NNE 3.5 mph - N/A   Clear
2:55 AM 64.4 °F 59.0 °F 83% 29.98 in 10.0 mi NE 3.5 mph - N/A   Clear
3:15 AM 62.6 °F 59.0 °F 88% 29.97 in 7.0 mi NE 4.6 mph - N/A   Clear
3:35 AM 62.6 °F 59.0 °F 88% 29.97 in 10.0 mi NNE 3.5 mph - N/A   Clear
3:55 AM 62.6 °F 59.0 °F 88% 29.97 in 10.0 mi Calm Calm - N/A   Clear
4:15 AM 62.6 °F 59.0 °F 88% 29.98 in 10.0 mi Calm Calm - N/A   Scattered Clouds
4:35 AM 62.6 °F 59.0 °F 88% 29.98 in 10.0 mi NNE 3.5 mph - N/A   Clear
4:55 AM 60.8 °F 59.0 °F 94% 29.98 in 10.0 mi Calm Calm - N/A   Clear
5:15 AM 60.8 °F 57.2 °F 88% 29.98 in 7.0 mi NNE 3.5 mph - N/A   Clear
5:35 AM 60.8 °F 57.2 °F 88% 29.98 in 7.0 mi NNE 3.5 mph - N/A   Clear
5:55 AM 60.8 °F 57.2 °F 88% 29.99 in 7.0 mi Calm Calm - N/A   Clear
6:15 AM 59.0 °F 57.2 °F 94% 29.99 in 7.0 mi Calm Calm - N/A   Clear
6:35 AM 59.0 °F 57.2 °F 94% 30.00 in 10.0 mi Calm Calm - N/A   Clear
6:55 AM 59.0 °F 57.2 °F 94% 30.01 in 7.0 mi Calm Calm - N/A   Clear
7:15 AM 60.8 °F 57.2 °F 88% 30.02 in 5.0 mi Calm Calm - N/A   Clear
7:35 AM 60.8 °F 57.2 °F 88% 30.02 in 7.0 mi Calm Calm - N/A   Clear
7:55 AM 60.8 °F 57.2 °F 88% 30.03 in 7.0 mi NE 3.5 mph - N/A   Clear
8:15 AM 62.6 °F 57.2 °F 82% 30.03 in 10.0 mi ENE 3.5 mph - N/A   Clear
8:35 AM 62.6 °F 59.0 °F 88% 30.03 in 10.0 mi NNE 3.5 mph - N/A   Clear
8:55 AM 64.4 °F 59.0 °F 83% 30.03 in 10.0 mi ENE 3.5 mph - N/A   Clear
9:15 AM 66.2 °F 60.8 °F 83% 30.03 in 10.0 mi East 3.5 mph - N/A   Clear
9:35 AM 68.0 °F 59.0 °F 73% 30.04 in 10.0 mi Calm Calm - N/A   Clear
9:55 AM 68.0 °F 60.8 °F 78% 30.04 in 10.0 mi Calm Calm - N/A   Clear
10:15 AM 69.8 °F 60.8 °F 73% 30.04 in 10.0 mi Calm Calm - N/A   Clear
10:35 AM 69.8 °F 60.8 °F 73% 30.04 in 10.0 mi Calm Calm - N/A   Clear
10:55 AM 71.6 °F 60.8 °F 69% 30.04 in 10.0 mi ENE 3.5 mph - N/A   Clear
11:15 AM 73.4 °F 60.8 °F 65% 30.04 in 10.0 mi ENE 5.8 mph - N/A   Scattered Clouds
11:35 AM 71.6 °F 57.2 °F 60% 30.05 in 10.0 mi Calm Calm - N/A   Scattered Clouds
11:55 AM 73.4 °F 59.0 °F 61% 30.06 in 10.0 mi North 8.1 mph - N/A   Mostly Cloudy
12:15 PM 71.6 °F 57.2 °F 60% 30.07 in 10.0 mi NNE 5.8 mph - N/A   Scattered Clouds
12:35 PM 75.2 °F 59.0 °F 57% 30.07 in 10.0 mi NE 5.8 mph - N/A   Scattered Clouds
12:55 PM 71.6 °F 57.2 °F 60% 30.06 in 10.0 mi North 6.9 mph - N/A   Mostly Cloudy
1:15 PM 73.4 °F 57.2 °F 57% 30.06 in 10.0 mi North 5.8 mph - N/A   Mostly Cloudy
1:35 PM 75.2 °F 57.2 °F 53% 30.06 in 10.0 mi NNE 6.9 mph - N/A   Mostly Cloudy
1:55 PM 73.4 °F 57.2 °F 57% 30.06 in 10.0 mi North 5.8 mph - N/A   Mostly Cloudy
2:15 PM 75.2 °F 57.2 °F 53% 30.06 in 10.0 mi NNE 3.5 mph - N/A   Mostly Cloudy
2:35 PM 75.2 °F 57.2 °F 53% 30.06 in 10.0 mi North 4.6 mph - N/A   Mostly Cloudy
2:55 PM 77.0 °F 57.2 °F 50% 30.06 in 10.0 mi North 5.8 mph - N/A   Mostly Cloudy
3:15 PM 75.2 °F 57.2 °F 53% 30.06 in 10.0 mi North 3.5 mph - N/A   Mostly Cloudy
3:35 PM 77.0 °F 57.2 °F 50% 30.06 in 10.0 mi NNW 4.6 mph - N/A   Mostly Cloudy
3:55 PM 77.0 °F 57.2 °F 50% 30.06 in 10.0 mi NNE 4.6 mph - N/A   Mostly Cloudy
4:15 PM 77.0 °F 57.2 °F 50% 30.06 in 10.0 mi North 3.5 mph - N/A   Scattered Clouds
4:35 PM 77.0 °F 57.2 °F 50% 30.06 in 10.0 mi North 8.1 mph - N/A   Scattered Clouds
4:55 PM 77.0 °F 57.2 °F 50% 30.07 in 10.0 mi NW 6.9 mph - N/A   Scattered Clouds
5:15 PM 75.2 °F 57.2 °F 53% 30.06 in 10.0 mi NNE 5.8 mph - N/A   Mostly Cloudy
5:35 PM 77.0 °F 59.0 °F 54% 30.07 in 7.0 mi North 4.6 mph - N/A   Mostly Cloudy
5:55 PM 75.2 °F 55.4 °F 50% 30.07 in 10.0 mi North 4.6 mph - N/A   Scattered Clouds
6:15 PM 77.0 °F 57.2 °F 50% 30.06 in 10.0 mi North 5.8 mph - N/A   Mostly Cloudy
6:35 PM 75.2 °F 57.2 °F 53% 30.07 in 10.0 mi North 5.8 mph - N/A   Mostly Cloudy
6:55 PM 75.2 °F 57.2 °F 53% 30.06 in 10.0 mi North 4.6 mph - N/A   Scattered Clouds
7:15 PM 75.2 °F 57.2 °F 53% 30.07 in 7.0 mi North 3.5 mph - N/A   Clear
7:35 PM 75.2 °F 57.2 °F 53% 30.08 in 10.0 mi North 3.5 mph - N/A   Scattered Clouds
7:55 PM 73.4 °F 57.2 °F 57% 30.08 in 10.0 mi Calm Calm - N/A   Scattered Clouds
8:15 PM 71.6 °F 57.2 °F 60% 30.07 in 10.0 mi Calm Calm - N/A   Clear
8:35 PM 71.6 °F 57.2 °F 60% 30.07 in 10.0 mi Calm Calm - N/A   Clear
8:55 PM 69.8 °F 57.2 °F 64% 30.07 in 7.0 mi Calm Calm - N/A   Clear
9:15 PM 69.8 °F 57.2 °F 64% 30.08 in 10.0 mi NE 3.5 mph - N/A   Clear
9:35 PM 68.0 °F 57.2 °F 68% 30.08 in 10.0 mi Calm Calm - N/A   Clear
9:55 PM 68.0 °F 57.2 °F 68% 30.08 in 10.0 mi Calm Calm - N/A   Clear
10:15 PM 66.2 °F 59.0 °F 78% 30.09 in 7.0 mi Calm Calm - N/A   Clear
10:35 PM 66.2 °F 57.2 °F 73% 30.10 in 10.0 mi Calm Calm - N/A   Clear
10:55 PM 66.2 °F 57.2 °F 73% 30.10 in 10.0 mi Calm Calm - N/A   Clear
11:15 PM 64.4 °F 59.0 °F 83% 30.10 in 10.0 mi Calm Calm - N/A   Clear
11:35 PM 64.4 °F 57.2 °F 77% 30.10 in 10.0 mi Calm Calm - N/A   Clear
11:55 PM 64.4 °F 57.2 °F 77% 30.10 in 10.0 mi Calm Calm - N/A   Clear